sat.trackr.live / text

‹ back to catalog

STARLINK-4374

NORAD 53652 · 2022-105E

PAYLOAD ACTIVE UNKNOWN

§ Identity

Operator
Country
US
Launch date
2022-08-31
Launch site
AFWTR
Launch vehicle
Mass (kg)
RCS (m²)

Purposes: comms

External: N2YO · Heavens-Above · Gunter

§ Orbital elements

Epoch: 2026-09-20T22:00:03.000096Z

Period
95.06 min
Inclination
97.2807°
Eccentricity
0.0002314
Mean motion
15.14823284 rev/d
Perigee alt
519.9 km
Apogee alt
523.1 km
Semi-major
6,899.7 km
B*
1.4638e-3
RAAN
137.7590°
Arg perigee
79.4342°
Mean anomaly
58.5148°
Rev number
578

§ Raw data

STARLINK-43741 53652U 22105E   26263.91670139  .00027213  00000+0  14638-2 0  99942 53652  97.2807 137.7590 0002314  79.4342  58.5148 15.14823284  5786

JSON: /api/v1/satellites/53652 · /tle

For live sub-satellite position, see the globe view (requires WebGL).

§ Visibility from observer

Set your observer location to see the next 7 days of passes ≥ 10°. The values pass through the URL so the page stays shareable.

No JS? Fill the form by hand. The geolocation button needs JavaScript.